Location: Unspecified
(47.4992°N, 121.7766°W)
Time: 03:45:22
(UTC-08:00)

Cosmos 2058 - Pass Details

Date: 04 February 2021
Orbit: 561 x 584 km, 82.5° (Epoch: 24 February)

Event Time Altitude Azimuth Distance (km) Brightness Sun altitude
Rises 04:19:22 0° 9° (N) 2,768 6.6 -32.2°
Reaches altitude 10° 04:23:01 10° 43° (NE) 1,862 6.1 -31.6°
Maximum altitude 04:24:28 12° 64° (ENE) 1,756 6.2 -31.3°
Drops below altitude 10° 04:25:55 10° 85° (E) 1,855 6.4 -31.1°
Sets 04:29:31 0° 118° (ESE) 2,744 7.1 -30.5°
